CES9399 ZGHA-ZYTX

Flight info

Callsign CES9399
Flight time N/A
Altitude 33100
Route GUD9X/36L GUDRO K0909S1130 DCT GUDRO W56 DOSKU/K0891S1190 LEBUN/K0893S1160 W56 NUDKU/K0891S1190 VYK W34 PAMRU W244 IGMOR W36 ENVAV W243 OTBUL W35 CHG A575 OMDUS DCT
Aircraft B77W/H-SDE1E2E3FGHIJ2J3J4J5M1RWXY/LB1D1

Departure

Time N/A
Airport Changsha Huanghua International Airport (ZGHA)

Arrival

Time 2026-04-17 09:06
Airport Shenyang Taoxian International Airport (ZYTX)
Time Latitude Longitude Altitude Speed Heading
2026-04-17 08:29 40.16856 119.12888 34999 ft 510 kts 31°
2026-04-17 08:29 40.22593 119.18345 34997 ft 510 kts 30°
2026-04-17 08:30 40.28356 119.23745 34992 ft 508 kts 30°
2026-04-17 08:30 40.34126 119.29101 35021 ft 508 kts 30°
2026-04-17 08:31 40.39896 119.34479 34984 ft 509 kts 30°
2026-04-17 08:31 40.45617 119.39839 34977 ft 508 kts 30°
2026-04-17 08:32 40.51365 119.45242 34992 ft 507 kts 30°
2026-04-17 08:32 40.57094 119.50635 34982 ft 506 kts 30°
2026-04-17 08:33 40.62821 119.56035 34976 ft 506 kts 30°
2026-04-17 08:33 40.68542 119.61445 34981 ft 506 kts 30°
2026-04-17 08:34 40.74266 119.66870 34968 ft 506 kts 30°
2026-04-17 08:34 40.79987 119.72296 34977 ft 506 kts 30°
2026-04-17 08:35 40.85707 119.77740 34952 ft 506 kts 30°
2026-04-17 08:35 40.91415 119.83184 34941 ft 506 kts 30°
2026-04-17 08:36 40.97139 119.88652 34947 ft 508 kts 30°
2026-04-17 08:36 41.02828 119.94100 34944 ft 509 kts 30°
2026-04-17 08:37 41.08567 119.99612 34929 ft 510 kts 30°
2026-04-17 08:37 41.14297 120.05133 34920 ft 507 kts 30°
2026-04-17 08:38 41.19975 120.10600 34926 ft 502 kts 30°
2026-04-17 08:38 41.25627 120.16060 34936 ft 501 kts 30°
2026-04-17 08:39 41.31276 120.21528 34917 ft 503 kts 30°
2026-04-17 08:39 41.36945 120.27031 34910 ft 505 kts 30°
2026-04-17 08:40 41.42636 120.32566 34920 ft 508 kts 30°
2026-04-17 08:40 41.48352 120.38137 34908 ft 510 kts 30°
2026-04-17 08:40 41.51034 120.41248 34892 ft 519 kts 44°
2026-04-17 08:41 41.53041 120.45297 34931 ft 531 kts 60°
2026-04-17 08:41 41.54221 120.49958 34906 ft 543 kts 77°
2026-04-17 08:41 41.54553 120.55053 34901 ft 545 kts 85°
2026-04-17 08:42 41.54897 120.65189 34902 ft 548 kts 85°
2026-04-17 08:42 41.55339 120.75305 34920 ft 550 kts 84°
2026-04-17 08:43 41.55865 120.85500 34914 ft 551 kts 84°
2026-04-17 08:43 41.56393 120.95707 34897 ft 551 kts 84°
2026-04-17 08:44 41.56894 121.05830 34933 ft 543 kts 85°
2026-04-17 08:44 41.57383 121.15887 34936 ft 542 kts 85°
2026-04-17 08:45 41.57787 121.25942 34943 ft 543 kts 86°
2026-04-17 08:45 41.58047 121.36039 34782 ft 546 kts 87°
2026-04-17 08:45 41.58170 121.41099 34267 ft 542 kts 86°
2026-04-17 08:46 41.58294 121.46027 33780 ft 535 kts 86°
2026-04-17 08:46 41.58423 121.50964 33193 ft 530 kts 86°
2026-04-17 08:46 41.58553 121.55867 32640 ft 526 kts 86°
2026-04-17 08:46 41.58684 121.60743 32102 ft 525 kts 86°
2026-04-17 08:47 41.58812 121.65613 31565 ft 524 kts 86°
2026-04-17 08:47 41.58939 121.70503 31048 ft 527 kts 86°
2026-04-17 08:47 41.59064 121.75409 30535 ft 530 kts 86°
2026-04-17 08:47 41.59185 121.80321 30026 ft 529 kts 86°
2026-04-17 08:48 41.59303 121.85214 29448 ft 525 kts 86°
2026-04-17 08:48 41.59419 121.90083 28855 ft 522 kts 86°
2026-04-17 08:48 41.59531 121.94893 28276 ft 516 kts 86°
2026-04-17 08:48 41.59641 121.99661 27697 ft 511 kts 86°
2026-04-17 08:49 41.59749 122.04383 27146 ft 505 kts 86°
2026-04-17 08:49 41.59853 122.09046 26585 ft 499 kts 86°
2026-04-17 08:49 41.59805 122.13662 26042 ft 495 kts 93°
2026-04-17 08:49 41.59404 122.18206 25524 ft 490 kts 98°
2026-04-17 08:50 41.58836 122.22673 25029 ft 486 kts 99°
2026-04-17 08:50 41.58228 122.27104 24511 ft 482 kts 99°
2026-04-17 08:50 41.57647 122.31492 24022 ft 478 kts 98°
2026-04-17 08:50 41.57105 122.35856 23525 ft 475 kts 98°
2026-04-17 08:51 41.56596 122.40193 22965 ft 471 kts 97°
2026-04-17 08:51 41.56109 122.44498 22386 ft 468 kts 97°
2026-04-17 08:51 41.55629 122.48784 21835 ft 465 kts 97°
2026-04-17 08:51 41.55153 122.53032 21288 ft 461 kts 97°
2026-04-17 08:52 41.54676 122.57256 20749 ft 458 kts 97°
2026-04-17 08:52 41.54205 122.61393 20237 ft 455 kts 97°
2026-04-17 08:52 41.53730 122.65547 19835 ft 450 kts 97°
2026-04-17 08:52 41.53253 122.69707 19701 ft 456 kts 97°
2026-04-17 08:53 41.52774 122.73875 19685 ft 453 kts 97°
2026-04-17 08:53 41.52296 122.78011 19676 ft 449 kts 97°
2026-04-17 08:53 41.51819 122.82125 19674 ft 449 kts 97°
2026-04-17 08:53 41.51342 122.86240 19680 ft 450 kts 97°
2026-04-17 08:54 41.50863 122.90368 19693 ft 451 kts 97°
2026-04-17 08:54 41.50383 122.94514 19688 ft 452 kts 97°
2026-04-17 08:54 41.49901 122.98666 19690 ft 453 kts 97°
2026-04-17 08:54 41.49421 123.02818 19686 ft 454 kts 97°
2026-04-17 08:55 41.48939 123.06976 19690 ft 454 kts 97°
2026-04-17 08:55 41.48457 123.11134 19691 ft 454 kts 97°
2026-04-17 08:55 41.47975 123.15293 19688 ft 453 kts 97°
2026-04-17 08:55 41.47493 123.19445 19689 ft 453 kts 97°
2026-04-17 08:56 41.47098 123.23581 19687 ft 445 kts 88°
2026-04-17 08:56 41.47455 123.27650 19699 ft 442 kts 69°
2026-04-17 08:56 41.48663 123.31365 19709 ft 433 kts 51°
2026-04-17 08:56 41.50537 123.34428 19717 ft 422 kts 37°
2026-04-17 08:57 41.52848 123.36733 19707 ft 408 kts 21°
2026-04-17 08:57 41.55406 123.38251 19719 ft 400 kts 16°
2026-04-17 08:57 41.57999 123.39674 19480 ft 406 kts 16°
2026-04-17 08:57 41.60619 123.41122 19018 ft 407 kts 16°
2026-04-17 08:58 41.63217 123.42588 18552 ft 403 kts 17°
2026-04-17 08:58 41.65780 123.44057 18088 ft 399 kts 17°
2026-04-17 08:58 41.67459 123.45028 17739 ft 395 kts 17°
2026-04-17 08:58 41.69969 123.46485 17230 ft 391 kts 17°
2026-04-17 08:59 41.72448 123.47926 16725 ft 387 kts 17°
2026-04-17 08:59 41.74903 123.49355 16235 ft 383 kts 17°
2026-04-17 08:59 41.77304 123.50844 15731 ft 379 kts 24°
2026-04-17 08:59 41.79349 123.53108 15222 ft 385 kts 43°
2026-04-17 09:00 41.81032 123.55864 14796 ft 380 kts 45°
2026-04-17 09:00 41.82456 123.58839 14297 ft 384 kts 63°
2026-04-17 09:00 41.83023 123.62368 13833 ft 393 kts 85°
2026-04-17 09:00 41.82628 123.65999 13358 ft 397 kts 108°
2026-04-17 09:01 41.81364 123.69258 12820 ft 386 kts 124°
2026-04-17 09:01 41.80089 123.71997 7227 ft 343 kts 123°
2026-04-17 09:01 41.77462 123.73364 4196 ft 420 kts 193°
2026-04-17 09:01 41.75012 123.72124 3177 ft 355 kts 229°
2026-04-17 09:02 41.73702 123.69758 3361 ft 293 kts 236°
2026-04-17 09:02 41.72634 123.67651 2755 ft 256 kts 235°
2026-04-17 09:02 41.71803 123.65679 2047 ft 234 kts 247°
2026-04-17 09:02 41.71310 123.63721 1414 ft 216 kts 245°
2026-04-17 09:03 41.70686 123.61951 922 ft 190 kts 245°
2026-04-17 09:03 41.70157 123.60399 666 ft 184 kts 244°
2026-04-17 09:03 41.69614 123.58891 764 ft 171 kts 243°
2026-04-17 09:03 41.69274 123.57428 830 ft 174 kts 259°
2026-04-17 09:04 41.69060 123.55854 1087 ft 160 kts 228°
2026-04-17 09:04 41.68210 123.54778 963 ft 172 kts 227°
2026-04-17 09:04 41.67478 123.53582 778 ft 161 kts 232°
2026-04-17 09:04 41.66746 123.52518 572 ft 148 kts 228°
2026-04-17 09:05 41.66126 123.51545 471 ft 135 kts 230°
2026-04-17 09:05 41.65492 123.50606 324 ft 132 kts 231°
2026-04-17 09:05 41.64876 123.49681 226 ft 132 kts 231°
2026-04-17 09:05 41.64340 123.48864 218 ft 100 kts 228°
2026-04-17 09:06 41.63964 123.48285 211 ft 65 kts 229°
2026-04-17 09:06 41.63741 123.47973 211 ft 30 kts 208°
2026-04-17 09:06 41.63559 123.47887 216 ft 15 kts 178°
2026-04-17 09:06 41.63530 123.47987 218 ft 15 kts 56°
2026-04-17 09:07 41.63509 123.48114 220 ft 15 kts 130°
2026-04-17 09:07 41.63445 123.48223 218 ft 15 kts 100°
2026-04-17 09:07 41.63405 123.48343 222 ft 7 kts 150°
2026-04-17 09:07 41.63404 123.48344 222 ft 0 kts 150°